#timestamp,LO_Frequency,Hit,StdDev 
1511830815.1,286046998.9,N
1511830816.0,286046998.9,N
1511830835.8,286046998.7,N
1511830855.7,286046998.7,N
1511830875.5,286046998.8,N
1511830895.3,286046998.8,N
1511830915.2,286046998.7,N
1511830935.0,286046998.9,N
1511830935.9,286046998.9,N
1511830955.8,286046998.1,N
1511830975.6,286046998.7,N
1511830995.4,286046998.6,N
1511831015.3,286047000.2,N
1511831035.1,286046999.7,N
1511831055.9,286046999.9,N
1511831075.7,286047000.4,N
1511831095.5,286047000.4,N
1511831115.4,286047002.5,N
1511831135.2,286047000.0,N
1511831155.0,286047000.1,N
1511831155.9,286047000.1,N
1511831175.8,286047002.8,N
1511831195.6,286047002.5,N
1511831215.5,286047000.2,N
1511831235.3,286047000.6,N
1511831255.1,286047000.9,N
1511831275.9,286046998.6,N
1511831295.7,286046998.1,N
1511831315.6,286047001.1,N
1511831335.4,286046998.1,N
1511831355.2,286046998.4,N
1511831375.1,286047000.8,N
1511831376.0,286047000.8,N
1511831395.8,286047000.2,N
1511831415.6,286047002.1,N
1511831435.5,286047002.8,N
1511831455.3,286047001.6,N
1511831475.2,286047000.6,N
1511831495.0,286047001.1,N
1511831495.9,286047001.1,N
1511831515.8,286046998.9,N
1511831535.6,286046998.5,N
1511831555.4,286046998.6,N
1511831575.3,286047001.2,N
1511831595.1,286047000.8,N
1511831615.8,286046998.7,N
1511831635.7,286047000.5,N
1511831655.5,286046998.5,N
1511831675.4,286047000.6,N
1511831695.2,286047000.6,N
1511831715.0,286046999.8,N
1511831715.9,286046999.8,N
1511831735.8,286047002.6,N
1511831755.6,286047002.0,N
1511831775.5,286047004.3,Y
1511831795.3,286047003.7,P
1511831815.1,286046999.7,N
1511831835.9,286047002.7,N
1511831855.7,286047002.8,N
1511831875.5,286047002.7,N
1511831895.4,286047002.5,N
1511831915.2,286047002.4,N
1511831935.1,286047002.8,N
1511831936.0,286047002.8,N
1511831955.8,286046999.9,N
1511831975.6,286047002.4,N
1511831995.5,286047002.8,N
1511832015.3,286046999.7,N
1511832035.1,286047000.5,N
1511832055.9,286047002.6,N
1511832075.7,286047004.1,Y
1511832095.6,286046999.8,P
1511832115.4,286046999.7,N
1511832135.2,286046998.6,N
1511832155.1,286046999.6,N
1511832156.0,286046999.6,N
1511832175.8,286046996.5,Y
1511832195.7,286046999.4,P
1511832215.5,286046999.1,P
1511832235.3,286046999.4,N
1511832255.2,286046999.3,N
1511832275.0,286046997.1,Y
1511832275.9,286046997.1,P
1511832295.7,286046999.4,N
1511832315.6,286046998.2,N
1511832335.4,286046998.7,N
1511832355.3,286046999.3,N
1511832375.1,286046998.9,N
1511832395.8,286047000.8,N
1511832415.7,286047000.1,N
1511832435.5,286046999.8,N
1511832455.4,286047002.3,N
1511832475.2,286047000.8,N
1511832495.0,286047000.5,N
1511832495.9,286047000.5,N
1511832515.8,286047000.6,N
1511832535.6,286047000.9,N
1511832555.5,286047001.1,N
1511832575.3,286047001.0,N
1511832595.1,286047000.8,N
1511832615.9,286047002.7,N
1511832635.7,286047000.8,N
1511832655.6,286047000.7,N
1511832675.4,286047001.0,N
1511832695.2,286047002.6,N
1511832715.1,286047002.4,N
1511832716.0,286047002.4,N
1511832735.8,286047002.7,N
1511832755.6,286047001.4,N
1511832775.5,286047000.0,N
1511832795.3,286047002.4,N
1511832815.2,286047002.7,N
1511832835.9,286047000.3,N
1511832855.7,286047002.4,N
1511832875.6,286046999.9,N
1511832895.4,286046999.8,N
1511832915.2,286047002.7,N
1511832935.1,286047002.8,N
1511832936.0,286047002.8,N
1511832955.8,286047002.1,N
1511832975.7,286046999.7,N
1511832995.5,286047002.3,N
1511833015.3,286047002.4,N
1511833035.2,286046999.7,N
1511833055.0,286046998.6,N
1511833055.9,286046998.6,N
1511833075.8,286046998.1,N
1511833095.6,286047001.2,N
1511833115.4,286047001.0,N
1511833135.3,286047002.0,N
1511833155.1,286047000.2,N
1511833175.9,286047001.8,N
1511833195.7,286047001.4,N
1511833215.5,286047002.8,N
1511833235.4,286046999.8,N
1511833255.2,286047002.1,N
1511833275.1,286047002.4,N
1511833276.0,286047002.4,N
1511833295.8,286047001.0,N
1511833315.6,286046998.7,N
1511833335.5,286047001.2,N
1511833355.3,286047001.0,N
1511833375.1,286047000.9,N
1511833395.9,286047000.7,N
1511833415.7,286047000.9,N
1511833435.6,286046999.0,N
1511833455.4,286046999.3,N
1511833475.2,286046999.3,N
1511833495.1,286046999.1,N
1511833496.0,286046999.1,N
1511833515.8,286046998.3,N
1511833535.6,286046999.5,N
1511833555.5,286046996.6,N
1511833575.3,286046999.0,N
1511833595.2,286046996.6,N
1511833615.9,286046997.5,N
1511833635.7,286046994.9,Y
1511833655.6,286046998.0,P
1511833675.4,286046996.4,P
1511833695.2,286046995.9,N
1511833715.1,286046996.4,N
1511833716.0,286046996.4,N
1511833735.8,286046992.1,Y
1511833755.7,286046995.0,P
1511833775.5,286046997.3,N
1511833795.3,286046996.5,P
1511833815.2,286046996.6,Y
1511833835.0,286047001.6,P
1511833835.9,286047001.6,N
1511833855.8,286047001.8,N
1511833875.6,286047002.4,N
1511833895.4,286047002.6,N
1511833915.3,286046999.7,N
1511833935.1,286047000.0,N
1511833955.8,286047002.4,N
1511833975.7,286047000.1,N
1511833995.5,286046999.9,N
1511834015.4,286046998.6,N
1511834035.2,286046998.9,N
1511834055.0,286046998.4,N
1511834055.9,286046998.4,N
1511834075.8,286046998.3,N
1511834095.6,286046998.5,N
1511834115.5,286047001.2,N
1511834135.3,286047000.8,N
1511834155.1,286047000.8,N
1511834175.9,286047000.4,N
1511834195.7,286047001.1,N
1511834215.5,286046998.2,N
1511834235.4,286046998.3,N
1511834255.2,286046998.6,N
1511834275.1,286046999.0,N
1511834276.0,286046999.0,N
1511834295.8,286047001.2,N
1511834315.6,286047000.9,N
1511834335.5,286047001.2,N
1511834355.3,286047000.5,N
1511834375.2,286047000.6,N
1511834395.9,286046998.5,N
